sat.trackr.live / text

‹ back to catalog

STARLINK-30784

NORAD 58156 · 2023-166G

PAYLOAD ACTIVE UNKNOWN

§ Identity

Operator
Country
US
Launch date
2023-10-29
Launch site
AFWTR
Launch vehicle
Mass (kg)
RCS (m²)

Purposes: comms

External: N2YO · Heavens-Above · Gunter

§ Orbital elements

Epoch: 2026-09-20T13:15:50.663808Z

Period
93.85 min
Inclination
53.1603°
Eccentricity
0.0000859
Mean motion
15.34365920 rev/d
Perigee alt
462.2 km
Apogee alt
463.4 km
Semi-major
6,840.9 km
B*
-1.0613e-4
RAAN
33.7818°
Arg perigee
77.4755°
Mean anomaly
282.6343°
Rev number
16,287

§ Raw data

STARLINK-307841 58156U 23166G   26263.55266972 -.00003956  00000+0 -10613-3 0  99922 58156  53.1603  33.7818 0000859  77.4755 282.6343 15.34365920162872

JSON: /api/v1/satellites/58156 · /tle

For live sub-satellite position, see the globe view (requires WebGL).

§ Visibility from observer

Set your observer location to see the next 7 days of passes ≥ 10°. The values pass through the URL so the page stays shareable.

No JS? Fill the form by hand. The geolocation button needs JavaScript.